Back to catalog

THORAD AGENA D DEB

AliveLEO
NORAD 4171·DEBRIS·🇺🇸 United States

Launched Sep 30, 1969 from Vandenberg Space Force Base

Loading…

Next Passes (next 24 hours)

TLE

FreshSource: Space-Track

Epoch: Sep 14, 2026, 14:02 UTC

1  4171U 69082AP  26257.58494091  .00000525  00000-0  19160-3 0  9992
2  4171  70.0771 330.1191 0035796 346.3815  13.6344 14.37907446952041

Track THORAD AGENA D DEB in real time with AllMySat

Download on the App Store